Date,TemperatureHighF,TemperatureAvgF,TemperatureLowF,DewpointHighF,DewpointAvgF,DewpointLowF,HumidityHigh,HumidityAvg,HumidityLow,PressureMaxIn,PressureMinIn,WindSpeedMaxMPH,WindSpeedAvgMPH,GustSpeedMaxMPH,PrecipitationSumIn
2013-1-1,29,23,16,24,14,10,79,70,57,30.16,30.01,8,4,14,0.00
2013-1-2,21,18,16,16,13,12,84,81,78,30.14,30.08,8,3,12,0.00
2013-1-4,31,28,24,22,21,20,86,75,67,30.18,30.00,13,8,22,0.00
2013-1-5,33,27,20,31,24,18,94,86,76,30.29,30.03,10,4,17,0.01
2013-1-6,36,34,32,34,31,28,94,88,79,30.25,29.91,9,6,16,0.06
2013-1-7,36,32,30,28,26,24,84,78,68,30.38,30.15,15,7,27,0.00
2013-1-8,38,30,24,29,25,22,91,84,71,30.25,30.16,7,3,10,0.00
2013-1-9,46,38,28,35,29,24,94,72,44,30.42,30.03,17,8,27,0.00
2013-1-10,44,35,27,34,29,24,92,80,58,30.58,30.18,8,4,13,0.05
2013-1-11,56,45,36,52,43,34,98,92,81,30.18,29.76,10,6,16,0.41
2013-1-12,59,51,46,52,48,44,97,90,75,29.92,29.81,11,4,17,0.00
2013-1-13,50,39,31,49,37,28,97,94,88,30.02,29.67,13,5,22,0.58
2013-1-14,31,25,21,28,20,16,91,79,72,30.44,30.02,15,6,23,0.00
2013-1-15,31,24,17,21,18,15,91,79,61,30.45,30.16,4,1,8,0.00
2013-1-16,25,23,21,21,20,19,92,89,83,30.16,29.97,3,0,5,0.00
2013-1-18,35,31,21,25,20,12,75,65,57,30.44,29.98,17,11,31,0.00
2013-1-19,47,42,35,37,31,25,73,66,58,29.98,29.54,17,10,25,0.00
2013-1-20,44,23,16,36,12,6,76,61,45,30.17,29.52,24,12,38,0.00
2013-1-21,18,16,15,14,9,6,88,74,64,30.15,29.97,11,4,15,0.00
2013-1-23,18,16,14,11,10,8,87,78,69,30.20,30.10,10,5,18,0.00
2013-1-24,20,14,9,12,6,0,88,70,44,30.60,30.13,9,4,14,0.00
2013-1-25,21,18,14,18,14,6,91,82,70,30.53,30.03,6,3,15,0.00
2013-1-26,28,22,18,19,16,13,91,79,58,30.46,30.06,8,3,14,0.00
2013-1-27,30,23,14,29,18,11,95,82,63,30.50,30.14,10,3,16,0.00
2013-1-28,45,37,30,44,36,29,98,97,94,30.17,29.85,8,4,13,0.54
2013-1-29,57,46,36,56,45,35,99,98,95,30.01,29.46,10,4,18,0.73
2013-1-30,60,50,34,58,49,30,98,93,86,29.46,29.08,20,7,29,0.47
2013-1-31,34,23,17,30,17,11,90,78,62,29.88,29.19,21,12,34,0.00
2013-2-1,20,16,10,13,9,3,87,76,62,30.28,29.88,13,8,22,0.00
2013-2-2,24,17,11,20,13,6,90,84,77,30.23,29.96,9,5,14,0.00
2013-2-3,22,15,7,18,10,3,89,81,65,30.03,29.86,12,4,17,0.00
2013-2-4,24,20,17,20,16,8,90,84,68,30.04,29.89,5,2,8,0.02
2013-2-5,28,23,18,26,19,14,93,86,63,29.96,29.82,10,4,15,0.00
2013-2-6,32,25,16,25,18,13,91,75,53,30.31,29.95,9,3,15,0.00
2013-2-7,39,31,25,30,24,19,88,76,68,30.30,29.88,11,5,15,0.00
2013-2-8,30,27,21,28,24,17,96,89,79,30.35,29.77,14,8,23,0.00
2013-2-9,32,22,12,21,17,10,91,80,56,30.46,30.30,6,3,11,0.09
2013-2-10,40,30,21,36,26,19,94,84,65,30.31,29.70,9,4,14,0.15
2013-2-11,46,38,32,45,32,27,95,80,70,29.84,29.55,18,11,30,0.04
2013-2-12,33,32,31,28,25,24,82,77,72,30.04,29.84,13,8,25,0.00
2013-2-14,40,38,35,36,33,29,89,84,78,29.82,29.67,13,9,22,0.03
2013-2-15,35,28,24,29,19,14,81,68,55,30.11,29.82,14,7,22,0.00
2013-2-16,26,21,16,20,15,12,88,77,59,30.10,29.98,10,4,15,0.00
2013-2-17,23,17,10,14,9,6,90,72,51,30.23,30.05,9,4,14,0.00
2013-2-18,45,31,16,36,22,9,82,70,59,30.23,29.61,11,5,18,0.00
2013-2-19,46,30,19,41,25,11,93,81,67,29.91,29.41,16,10,28,0.20
2013-2-20,23,20,17,17,13,10,87,73,64,30.24,29.91,13,9,24,0.00
2013-2-21,27,21,20,17,15,13,82,76,63,30.41,30.24,11,5,14,0.00
2013-2-25,42,36,30,28,25,23,78,65,53,30.24,30.10,6,3,10,0.00
2013-2-26,37,33,29,33,28,22,96,82,68,30.13,29.51,13,8,23,0.23
2013-2-27,36,34,34,35,33,33,97,96,92,29.57,29.45,8,4,13,0.29
2013-2-28,38,34,30,34,31,26,97,89,80,29.95,29.53,12,6,19,0.15
2013-3-1,30,27,25,26,23,21,86,84,81,30.11,29.94,9,6,15,0.00
2013-3-2,27,25,24,22,20,17,88,82,73,30.08,30.05,7,5,12,0.00
2013-3-3,29,24,18,20,17,14,85,76,61,30.06,30.00,10,5,16,0.00
2013-3-4,36,26,15,19,16,12,89,68,42,30.16,30.06,6,3,9,0.00
2013-3-5,37,29,21,26,22,16,90,76,63,30.14,29.84,10,5,17,0.00
2013-3-6,41,34,27,31,28,24,89,79,66,30.20,29.85,8,4,14,0.00
2013-3-7,35,33,27,32,27,20,91,80,65,30.39,30.19,8,4,12,0.00
2013-3-8,46,34,23,32,25,19,86,71,51,30.50,30.39,5,2,8,0.00
2013-3-9,44,36,27,33,30,25,93,77,56,30.42,30.04,9,4,17,0.00
2013-3-10,62,51,37,48,39,33,84,66,49,30.04,29.78,14,4,22,0.00
2013-3-11,56,50,38,49,44,33,95,82,57,29.80,29.43,15,7,23,0.27
2013-3-12,38,35,31,34,30,26,93,84,76,29.90,29.65,11,7,20,0.03
2013-3-13,33,29,26,29,22,16,93,74,52,30.18,29.84,15,9,24,0.00
2013-3-14,41,31,24,23,18,14,78,59,42,30.26,30.08,10,5,17,0.00
2013-3-15,39,35,32,35,30,20,96,81,56,30.08,29.84,9,4,16,0.05
2013-3-16,35,30,28,34,27,22,96,88,75,30.03,29.76,7,4,11,0.02
2013-3-17,32,27,22,25,18,12,82,68,54,30.28,30.03,9,5,16,0.00
2013-3-18,32,27,22,30,22,15,91,83,76,30.20,29.75,13,7,19,0.00
2013-3-19,28,26,23,21,19,17,87,75,70,29.93,29.73,15,10,30,0.01
2013-3-20,29,25,19,20,16,12,77,68,59,29.95,29.89,12,8,20,0.00
2013-3-21,31,25,16,26,19,12,88,81,69,29.93,29.86,12,7,18,0.00
2013-3-22,39,31,26,25,21,18,78,67,52,30.02,29.93,11,7,17,0.00
2013-3-23,39,32,25,26,24,22,90,74,57,30.11,30.01,6,3,11,0.00
2013-3-24,38,31,24,29,25,21,91,77,55,30.07,29.64,13,5,19,0.00
2013-3-25,40,34,32,30,23,-100,81,71,62,29.90,29.57,11,-27,18,0.00
2013-3-26,43,37,34,32,30,28,85,76,59,30.09,29.90,10,6,15,0.00
2013-3-27,47,39,31,32,27,25,84,64,44,30.18,30.09,13,9,21,0.00
2013-3-28,51,41,32,30,27,22,79,58,35,30.25,30.18,9,6,15,0.00
2013-3-29,52,42,33,27,24,20,70,50,31,30.27,30.18,7,4,10,0.00
2013-3-30,55,44,29,30,25,16,85,51,22,30.20,29.92,11,4,16,0.00
2013-3-31,58,46,38,43,36,30,88,68,40,29.92,29.60,13,5,23,0.05
2013-4-1,44,33,28,35,20,12,86,59,38,30.09,29.65,14,10,24,0.00
2013-4-2,40,32,25,20,16,12,81,53,34,30.25,30.08,13,7,26,0.00
2013-4-3,42,33,25,22,15,10,71,49,31,30.43,30.24,14,4,18,0.00
2013-4-4,55,41,28,23,18,13,74,43,21,30.36,29.94,11,5,16,0.00
2013-4-5,48,42,34,32,23,16,80,49,30,30.20,29.92,9,5,18,0.00
2013-4-6,51,40,31,28,23,16,75,52,33,30.25,29.79,11,6,20,0.00
2013-4-7,59,50,40,47,37,27,77,61,37,30.01,29.59,16,8,30,0.00
2013-4-8,65,46,37,57,41,32,91,82,60,30.03,29.69,15,6,23,0.11
2013-4-9,50,46,42,47,43,40,95,89,80,30.08,29.87,11,4,16,0.16
2013-4-10,46,42,39,44,41,37,96,95,94,30.01,29.82,13,4,19,0.29
2013-4-11,40,38,37,39,37,35,96,95,93,29.98,29.62,12,8,21,0.99
2013-4-12,42,39,36,40,36,34,97,91,76,29.76,29.51,13,6,23,0.33
2013-4-13,42,39,36,38,32,28,91,76,61,29.98,29.75,20,7,23,0.03
2013-4-14,48,40,34,39,33,28,88,76,67,30.12,29.94,10,4,13,0.01
2013-4-15,69,55,40,56,46,35,88,72,54,29.97,29.86,15,6,27,0.03
2013-4-16,62,55,48,55,44,34,94,70,42,30.20,29.84,10,5,16,0.03
2013-4-17,58,48,40,44,36,31,93,65,42,30.33,30.01,10,6,17,0.65
2013-4-18,78,58,44,65,55,42,96,88,59,30.03,29.54,26,8,36,0.61
2013-4-19,59,46,37,58,41,30,97,82,63,29.72,29.29,20,10,35,0.30
2013-4-20,39,35,30,32,23,18,91,64,48,30.44,29.72,15,8,23,0.00
2013-4-21,49,37,26,29,25,20,92,63,39,30.63,30.44,9,4,15,0.00
2013-4-22,62,48,32,36,30,18,89,54,20,30.48,30.19,8,3,13,0.00
2013-4-23,70,56,42,54,42,34,95,63,38,30.19,29.78,18,5,27,0.11
2013-4-24,56,41,35,55,38,30,97,90,72,30.11,29.70,12,6,20,0.49
2013-4-25,51,42,33,40,32,28,89,70,43,30.33,30.10,14,6,24,0.07
2013-4-26,59,47,32,38,33,28,91,61,37,30.46,30.33,10,4,15,0.00
2013-4-27,69,55,38,43,36,28,93,55,23,30.35,30.09,8,3,14,0.00
2013-4-28,56,53,51,54,46,33,97,78,47,30.09,29.81,7,3,14,0.24
2013-4-29,69,59,53,56,53,52,99,82,57,29.92,29.81,7,3,11,0.02
2013-4-30,72,60,54,58,51,-100,95,77,60,30.06,29.91,12,-18,17,0.10
2013-5-1,81,67,52,58,54,50,94,67,41,30.20,30.04,9,4,15,0.00
2013-5-2,78,67,56,56,50,44,78,57,38,30.22,30.11,10,4,15,0.00
2013-5-3,77,67,58,56,44,32,57,45,21,30.11,30.03,11,5,18,0.00
2013-5-4,70,63,56,48,43,36,71,49,30,30.10,30.03,10,6,17,0.00
2013-5-5,72,63,53,46,39,29,75,45,21,30.09,30.00,10,5,16,0.00
2013-5-6,73,63,51,49,43,38,69,49,38,30.04,29.95,9,4,13,0.00
2013-5-7,76,65,53,54,47,38,69,52,35,30.04,29.96,11,4,17,0.00
2013-5-8,81,67,55,55,50,46,80,56,33,29.99,29.89,8,3,16,0.00
2013-5-9,81,68,52,56,50,43,94,57,29,29.93,29.86,8,2,12,0.00
2013-5-10,70,56,42,62,47,-100,96,80,46,29.87,29.70,12,-27,21,0.20
2013-5-11,60,48,40,46,41,34,93,79,56,29.88,29.71,15,7,25,0.00
2013-5-12,48,42,36,35,31,25,86,66,47,30.08,29.85,16,9,26,0.00
2013-5-13,54,44,33,32,26,22,80,53,30,30.17,30.08,9,4,14,0.00
2013-5-14,75,56,44,50,38,-100,76,55,38,30.11,29.71,9,-18,17,0.00
2013-5-15,81,70,54,60,50,44,90,55,28,29.75,29.56,15,6,24,0.00
2013-5-16,81,58,54,49,26,-100,74,41,26,29.99,29.74,14,-130,14,0.00
2013-5-17,72,54,50,47,30,-100,73,50,35,30.13,29.99,8,-89,12,0.00
2013-5-18,80,67,56,48,45,43,68,47,29,30.13,30.00,8,5,15,0.00
2013-5-19,85,71,56,64,56,46,75,60,45,30.02,29.85,7,3,11,0.00
2013-5-20,89,55,64,71,24,-100,91,56,41,29.90,29.74,20,-242,20,0.00
2013-5-21,84,77,67,68,64,59,94,66,46,29.78,29.67,12,5,19,0.18
2013-5-22,80,70,63,66,64,59,95,82,51,29.70,29.58,18,6,26,0.07
2013-5-23,64,49,43,61,38,-100,96,83,83,30.12,29.65,15,-76,22,0.15
2013-5-24,54,28,39,40,-18,-100,84,40,47,30.35,30.12,10,-390,16,0.00
2013-5-25,64,51,36,40,34,-100,95,60,36,30.40,30.27,6,-9,11,0.00
2013-5-26,69,56,40,44,37,30,94,55,27,30.33,30.22,6,2,12,0.00
2013-5-27,63,52,43,50,43,33,96,72,34,30.25,30.00,7,3,13,0.35
2013-5-28,74,62,52,71,60,50,98,94,80,30.00,29.78,9,4,16,0.30
2013-5-29,82,73,67,68,65,62,90,77,55,29.93,29.73,13,7,26,0.00
2013-5-30,86,77,70,74,69,66,90,76,55,30.02,29.93,12,5,20,0.27
2013-5-31,81,72,67,69,67,65,96,85,65,29.96,29.81,13,5,21,0.24
2013-6-1,79,71,64,68,64,62,96,81,59,29.81,29.65,13,6,22,0.16
2013-6-2,71,65,54,65,57,45,89,76,60,29.95,29.61,12,7,21,0.00
2013-6-3,67,56,44,47,41,36,88,59,36,30.06,29.95,7,4,12,0.00
2013-6-4,73,61,49,49,44,34,88,56,37,30.18,30.06,6,2,11,0.00
2013-6-5,74,62,50,49,42,35,69,49,28,30.16,29.97,8,3,16,0.00
2013-6-6,68,60,57,54,48,42,78,65,57,29.99,29.83,8,4,12,0.00
2013-6-7,61,57,52,54,52,49,93,83,75,29.89,29.84,6,3,10,0.00
2013-6-8,72,63,57,55,52,50,84,69,48,30.05,29.88,4,1,7,0.00
2013-6-9,75,67,57,58,55,51,88,66,51,30.10,29.93,11,5,18,0.00
2013-6-10,71,66,60,68,63,53,97,92,62,29.94,29.70,6,2,9,1.06
2013-6-11,81,72,64,66,64,62,97,79,55,29.85,29.72,9,4,14,0.00
2013-6-12,76,70,64,68,65,61,92,83,74,29.89,29.58,7,3,11,0.30
2013-6-13,76,69,62,64,59,54,97,73,48,29.88,29.51,11,5,18,1.04
2013-6-14,76,67,59,57,54,49,84,64,39,30.04,29.88,7,4,17,0.00
2013-6-15,78,68,59,63,58,53,89,72,45,30.06,29.89,10,3,15,0.00
2013-6-16,82,72,65,65,61,51,96,73,35,29.90,29.73,12,6,18,0.22
2013-6-17,82,70,64,62,58,55,79,66,48,29.89,29.83,8,3,13,0.00
2013-6-18,72,67,57,56,47,42,62,49,42,30.05,29.96,8,5,15,0.08
2013-6-19,76,64,51,54,47,39,78,56,37,30.15,30.04,7,3,12,0.00
2013-6-20,82,69,54,58,53,50,90,61,36,30.20,30.11,7,2,12,0.00
2013-6-21,86,74,59,66,60,53,82,63,45,30.18,30.01,9,3,16,0.00
2013-6-22,87,77,70,73,67,60,87,72,61,30.06,29.93,8,4,15,0.03
2013-6-23,89,80,69,70,68,66,93,70,49,30.02,29.92,12,5,18,0.00
2013-6-24,87,78,69,71,68,64,90,72,53,30.01,29.87,11,4,16,0.00
2013-6-25,84,74,68,72,68,64,94,82,63,29.93,29.77,11,4,20,0.29
2013-6-26,86,75,67,71,68,65,97,80,57,29.85,29.70,11,3,16,0.03
2013-6-27,84,73,66,72,68,63,96,87,58,29.72,29.58,15,2,22,1.07
2013-6-28,77,68,64,67,65,62,97,91,66,29.60,29.48,9,3,14,0.40
2013-6-29,75,67,63,64,60,-100,97,81,64,29.70,29.50,7,-8,12,0.01
2013-6-30,79,70,62,62,58,46,89,67,48,29.91,29.70,8,4,14,0.00
2013-7-1,68,64,59,61,55,47,92,74,54,30.03,29.90,8,4,12,0.23
2013-7-2,75,67,59,63,60,55,88,78,64,30.04,29.98,7,3,11,0.00
2013-7-3,83,72,61,69,64,58,93,78,53,30.07,30.01,9,3,16,0.00
2013-7-4,80,75,70,69,66,62,93,75,57,30.09,30.03,9,3,14,0.00
2013-7-5,84,76,71,70,66,58,94,73,43,30.07,30.00,7,2,11,0.00
2013-7-6,84,75,68,70,69,66,95,81,59,30.07,29.95,7,2,10,0.05
2013-7-7,83,74,70,70,69,65,96,83,57,29.99,29.91,7,4,10,0.01
2013-7-8,82,74,69,74,69,66,96,87,74,30.00,29.92,12,3,17,0.48
2013-7-9,89,76,72,73,69,-100,98,83,53,29.95,29.82,15,-8,24,0.04
2013-7-10,89,78,68,76,70,59,98,77,51,29.90,29.71,16,5,24,0.05
2013-7-11,78,70,62,59,57,53,83,64,45,30.03,29.89,8,4,13,0.00
2013-7-12,83,70,57,62,58,55,95,68,41,30.12,30.03,6,3,10,0.00
2013-7-13,85,74,63,66,61,52,91,65,36,30.18,30.10,6,3,11,0.00
2013-7-14,90,79,66,72,68,63,93,71,49,30.21,30.16,6,2,9,0.00
2013-7-15,90,80,71,77,73,68,95,82,62,30.25,30.18,5,2,9,0.29
2013-7-16,90,82,74,78,76,73,97,81,61,30.26,30.18,7,2,9,0.10
2013-7-17,94,84,76,78,75,72,90,74,53,30.23,30.09,9,4,15,0.00
2013-7-18,94,84,75,76,74,69,89,71,50,30.11,29.90,10,4,17,0.00
2013-7-19,93,84,77,76,73,64,86,70,46,29.91,29.66,14,6,22,0.04
2013-7-20,86,77,70,74,65,57,95,69,39,29.88,29.67,13,4,21,0.29
2013-7-21,83,74,64,66,60,53,84,64,46,29.96,29.87,5,3,8,0.00
2013-7-22,81,75,69,69,64,60,85,70,50,29.92,29.72,7,3,10,0.00
2013-7-23,80,72,69,72,68,66,94,89,72,29.75,29.63,8,4,17,0.20
2013-7-29,69,64,60,57,56,55,86,74,63,30.15,30.00,8,4,17,0.00
2013-7-30,79,67,54,62,57,53,96,72,44,30.21,30.09,6,2,10,0.00
2013-7-31,75,68,64,67,64,60,96,87,69,30.10,29.84,6,2,10,0.30
2013-8-1,79,68,64,65,61,53,95,78,42,29.88,29.83,10,5,16,0.00
2013-8-2,75,66,58,65,59,54,91,79,56,29.90,29.81,12,5,20,0.00
2013-8-3,77,69,61,64,58,52,95,70,44,30.01,29.85,8,4,15,0.00
2013-8-4,74,64,56,56,54,51,92,70,51,30.12,30.01,8,4,13,0.00
2013-8-5,72,66,57,59,54,50,85,67,50,30.10,29.94,7,2,11,0.00
2013-8-6,78,70,63,67,63,59,94,82,65,29.94,29.86,9,3,15,0.09
2013-8-7,82,73,66,73,67,63,96,84,65,29.88,29.78,9,3,15,0.06
2013-8-8,77,70,66,71,64,60,91,80,63,29.97,29.85,5,3,11,0.00
2013-8-9,80,70,60,62,58,54,85,66,43,29.97,29.90,8,3,15,0.00
2013-8-10,78,69,62,62,59,55,91,71,49,30.09,29.97,6,2,9,0.00
2013-8-11,78,69,58,63,58,55,93,71,48,30.10,30.00,8,2,13,0.00
2013-8-12,70,67,64,67,64,60,95,89,75,30.02,29.81,7,2,10,0.64
2013-8-13,67,63,57,65,55,47,96,79,51,29.98,29.79,10,6,16,0.00
2013-8-14,57,53,50,52,48,46,90,83,74,30.12,30.02,6,4,11,0.00
2013-8-23,83,76,64,58,53,45,76,47,33,30.17,30.07,6,3,11,0.00
2013-8-24,83,70,57,65,58,53,96,69,37,30.28,30.17,8,2,11,0.00
2013-8-25,87,73,58,65,61,56,95,68,43,30.27,30.11,10,4,18,0.00
2013-8-26,88,79,70,74,68,62,83,69,59,30.12,29.92,11,5,19,0.00
2013-8-27,82,77,71,76,72,69,95,87,75,29.94,29.78,10,3,18,0.36
2013-8-28,82,77,71,75,72,68,95,84,67,29.95,29.73,14,4,21,0.14
2013-8-29,88,76,66,72,68,65,96,79,53,30.03,29.95,5,2,8,0.00
2013-8-30,86,74,66,71,68,65,97,83,56,29.96,29.76,11,3,17,0.00
2013-9-3,74,68,59,56,55,54,83,65,52,29.99,29.94,7,5,13,0.00
2013-9-4,81,69,58,64,59,54,89,72,49,30.05,29.96,9,6,19,0.00
2013-9-5,71,63,53,63,52,46,93,69,44,30.24,30.03,7,4,12,0.00
2013-9-6,75,61,47,55,47,36,96,64,28,30.26,30.05,6,2,10,0.00
2013-9-7,81,69,59,70,61,50,92,76,61,30.05,29.86,8,3,14,0.06
2013-9-8,74,68,57,68,58,49,92,72,48,30.05,29.88,7,4,14,0.00
2013-9-9,73,65,55,69,60,51,94,86,73,30.04,29.88,5,2,8,0.03
2013-9-10,93,81,70,73,70,65,95,71,41,29.96,29.85,11,4,19,0.00
2013-9-11,90,79,70,73,69,66,95,73,54,29.97,29.84,17,4,22,0.70
2013-9-12,77,68,57,68,61,50,95,80,48,29.92,29.79,14,5,20,0.24
2013-9-13,59,54,44,51,45,39,88,72,53,30.12,29.92,12,6,19,0.00
2013-9-14,67,54,42,49,43,37,95,69,37,30.18,30.07,6,2,12,0.00
2013-9-15,63,56,50,55,51,47,95,82,62,30.10,30.03,6,2,8,0.05
2013-9-16,62,56,47,54,49,42,95,79,54,30.36,30.10,8,4,15,0.01
2013-9-17,68,54,41,52,45,39,96,74,46,30.40,30.21,7,2,12,0.00
2013-9-18,75,61,47,58,52,45,96,75,42,30.21,30.02,7,2,12,0.00
2013-9-19,69,62,60,64,60,58,96,91,85,30.02,29.98,6,2,8,0.00
2013-10-3,76,73,66,68,66,59,92,78,72,30.00,29.89,9,4,13,0.00
2013-10-4,78,72,65,68,66,64,95,84,70,29.98,29.90,8,3,12,0.01
2013-10-5,72,68,65,69,66,63,98,93,85,30.01,29.83,6,2,9,0.15
2013-10-6,70,66,56,68,64,54,97,94,85,29.83,29.58,12,4,17,0.32
2013-10-7,58,53,46,54,48,42,95,84,66,30.09,29.65,11,6,16,0.02
2013-10-8,67,55,45,49,44,38,95,71,41,30.27,30.09,6,2,9,0.00
2013-10-9,70,56,44,55,47,43,97,75,43,30.31,30.20,6,2,12,0.00
2013-10-10,71,57,47,54,47,44,98,74,39,30.21,30.11,6,1,9,0.01
2013-10-11,72,57,44,53,46,41,95,72,34,30.14,30.05,5,1,8,0.00
2013-10-12,76,63,52,61,56,50,95,81,41,30.08,30.01,7,2,14,0.00
2013-10-13,67,61,51,60,48,39,95,66,35,30.31,30.05,8,4,12,0.00
2013-10-14,64,54,47,46,44,42,92,71,48,30.38,30.25,4,3,8,0.00
2013-10-15,64,56,45,61,53,43,95,90,78,30.26,29.81,8,3,12,0.05
2013-10-16,62,59,56,61,52,45,96,79,63,29.81,29.79,12,7,18,0.00
2013-10-17,53,51,50,50,49,48,95,91,86,29.86,29.74,7,4,11,0.14
2013-10-18,62,55,44,47,44,40,94,68,45,29.90,29.82,10,6,15,0.00
2013-10-21,52,51,51,47,46,44,87,81,78,29.84,29.82,9,7,13,0.02
2013-10-24,47,42,35,34,32,28,89,68,49,30.16,30.00,10,7,16,0.00
2013-10-25,45,35,32,36,32,30,94,90,65,30.32,30.16,8,5,11,0.00
2013-10-28,51,45,40,41,36,32,84,72,66,30.39,30.22,7,4,12,0.00
2013-10-29,49,43,40,37,34,30,79,70,54,30.43,30.24,4,2,7,0.00
2013-10-30,63,47,36,46,39,34,95,78,51,30.24,30.05,6,1,11,0.00
2013-10-31,62,60,59,60,59,58,97,95,93,29.67,29.13,16,10,20,1.26
2013-11-1,61,51,46,60,45,40,96,82,71,29.64,29.07,20,9,29,0.08
2013-11-2,47,44,37,45,42,33,96,91,84,30.08,29.62,8,4,12,0.18
2013-11-3,43,38,33,36,33,31,94,83,68,30.45,30.08,5,2,8,0.00
2013-11-4,50,41,34,35,32,29,90,73,46,30.48,30.33,11,5,14,0.00
2013-11-5,54,48,48,47,36,-100,82,74,74,30.35,30.28,6,-50,8,0.00
2013-11-6,56,54,54,53,51,49,92,90,84,29.94,29.77,14,11,18,0.20
2013-11-7,44,41,38,29,27,26,69,59,52,30.11,30.06,13,10,17,0.00
2013-11-8,44,41,35,33,29,26,86,62,50,30.28,30.22,9,5,10,0.01
2013-11-11,43,40,34,39,36,31,92,85,74,30.11,30.01,10,6,12,0.16
2013-11-12,34,31,27,23,21,18,79,65,54,30.53,30.50,13,9,19,0.00
2013-11-13,41,36,29,25,19,10,80,52,30,30.48,30.16,13,10,20,0.00
2013-11-14,47,35,30,27,22,19,68,59,45,30.16,30.01,13,8,19,0.00
2013-11-18,41,38,36,32,29,26,74,70,67,29.95,29.76,18,14,19,0.00
2013-11-19,42,38,33,24,23,23,66,55,48,30.34,30.31,6,3,10,0.00
2013-11-20,47,43,36,34,29,25,88,59,44,30.44,30.26,11,9,17,0.00
2013-11-21,48,46,44,44,40,36,87,80,71,30.26,30.19,10,6,13,0.00
2013-11-25,31,28,22,18,17,15,72,63,56,30.27,30.09,12,10,17,0.00
2013-11-26,34,33,30,29,28,27,87,83,79,30.09,29.95,6,3,10,0.00
2013-11-27,27,24,21,16,15,14,79,70,60,30.00,29.94,12,9,17,0.00
2013-12-26,29,27,26,27,21,18,93,76,71,30.25,30.15,14,9,17,0.00
2013-12-30,21,19,17,10,8,6,65,63,60,30.27,30.19,7,4,12,0.00
2013-12-31,18,17,16,13,10,7,86,77,66,30.24,30.15,13,9,14,0.00